Juneau, WI

3:30 PM CST on December 12, 2019 (GMT -0600)
Dodge County

Weather History for KUNU - October, 2019

Change the Weather History Date:

Wednesday, October 30, 2019

  Actual Average Record
Temperature  
Mean Temperature 30 °F -  
Max Temperature 35 °F 51 °F 74 °F (1971)
Min Temperature 26 °F 37 °F 14 °F (1988)
Degree Days  
Heating Degree Days 34    
Moisture  
Dew Point 25 °F    
Average Humidity 81    
Maximum Humidity 99    
Minimum Humidity 61    
Precipitation  
Precipitation 0.00 in - - ()
Sea Level Pressure  
Sea Level Pressure 30.23 in    
Wind  
Wind Speed 3 mph ()    
Max Wind Speed 14 mph    
Max Gust Speed 20 mph    
Visibility 9.3 miles    
Events Snow    
Averages and records for this station are not official NWS values.
T = Trace of Precipitation, MM = Missing Value Source: Averaged Metar Reports

Daily Weather History Graph

Daily Weather History Graph

Search for Another Location

Airport or City:

Astronomy

Oct. 30, 2019 Rise Set
Actual Time 7:27 AM CDT 5:48 PM CDT
Civil Twilight 6:57 AM CDT 6:18 PM CDT
Nautical Twilight 6:24 AM CDT 6:52 PM CDT
Astronomical Twilight 5:50 AM CDT 7:25 PM CDT
Moon 10:14 AM CDT (10/30) 7:52 PM CDT (10/30)
Length of Visible Light 11h 20m
Length of Day
10h 21m
Waxing Crescent, 9% of the Moon is Illuminated
Oct 30
Waxing Crescent
Nov 4
First Quarter
Nov 12
Full
Nov 19
Last Quarter
Nov 26
New

Hourly Weather History & Observations

Time (CDT) Temp. Windchill Dew Point Humidity Pressure Visibility Wind Dir Wind Speed Gust Speed Precip Events Conditions
12:15 AM 27.1 °F - 26.4 °F 97% 30.30 in 10.0 mi Calm Calm - N/A   Clear
12:35 AM 26.6 °F - 25.5 °F 96% 30.31 in 10.0 mi Calm Calm - N/A   Clear
12:55 AM 27.3 °F - 25.7 °F 94% 30.31 in 10.0 mi Calm Calm - N/A   Clear
1:15 AM 27.5 °F - 25.5 °F 92% 30.31 in 10.0 mi Calm Calm - N/A   Clear
1:35 AM 27.3 °F - 25.3 °F 92% 30.31 in 10.0 mi Calm Calm - N/A   Clear
1:55 AM 26.6 °F - 25.7 °F 96% 30.32 in 10.0 mi Calm Calm - N/A   Clear
2:35 AM 26.6 °F - 25.7 °F 96% 30.33 in 10.0 mi Calm Calm - N/A   Scattered Clouds
3:15 AM 26.6 °F - 25.9 °F 97% 30.32 in 10.0 mi Calm Calm - N/A   Clear
3:35 AM 27.3 °F - 26.2 °F 96% 30.31 in 10.0 mi Calm Calm - N/A   Clear
3:55 AM 26.8 °F - 26.1 °F 97% 30.29 in 10.0 mi Calm Calm - N/A   Clear
4:15 AM 27.5 °F - 26.2 °F 95% 30.29 in 10.0 mi Calm Calm - N/A   Clear
4:35 AM 26.4 °F - 25.7 °F 97% 30.30 in 10.0 mi Calm Calm - N/A   Clear
4:55 AM 26.6 °F - 26.2 °F 99% 30.30 in 10.0 mi Calm Calm - N/A   Clear
5:15 AM 27.3 °F - 25.3 °F 92% 30.31 in 10.0 mi Calm Calm - N/A   Clear
5:35 AM 27.5 °F - 25.5 °F 92% 30.30 in 10.0 mi Calm Calm - N/A   Clear
6:15 AM 27.7 °F 23.8 °F 24.4 °F 88% 30.29 in 10.0 mi North 3.5 mph - N/A   Clear
6:35 AM 28.0 °F 22.8 °F 24.4 °F 86% 30.30 in 10.0 mi North 4.6 mph - N/A   Clear
6:55 AM 27.9 °F 22.6 °F 23.9 °F 85% 30.30 in 10.0 mi North 4.6 mph - N/A   Clear
7:15 AM 27.7 °F 22.4 °F 23.7 °F 85% 30.29 in 10.0 mi North 4.6 mph - N/A   Clear
7:35 AM 27.7 °F 23.8 °F 23.7 °F 85% 30.30 in 10.0 mi North 3.5 mph - N/A   Scattered Clouds
7:55 AM 27.5 °F 21.1 °F 23.9 °F 86% 30.30 in 10.0 mi North 5.8 mph - N/A   Scattered Clouds
8:35 AM 28.4 °F 23.3 °F 23.9 °F 83% 30.31 in 10.0 mi North 4.6 mph - N/A   Mostly Cloudy
8:55 AM 29.1 °F 24.1 °F 24.8 °F 84% 30.32 in 10.0 mi North 4.6 mph - N/A   Overcast
9:15 AM 29.7 °F 23.7 °F 24.4 °F 81% 30.31 in 10.0 mi North 5.8 mph - N/A   Overcast
9:35 AM 29.8 °F 24.9 °F 24.8 °F 81% 30.31 in 10.0 mi North 4.6 mph - N/A   Overcast
9:55 AM 30.2 °F 24.3 °F 25.5 °F 83% 30.31 in 10.0 mi North 5.8 mph - N/A   Overcast
10:15 AM 30.9 °F 25.2 °F 25.7 °F 81% 30.30 in 10.0 mi North 5.8 mph - N/A   Overcast
10:35 AM 31.1 °F 25.4 °F 26.2 °F 82% 30.29 in 10.0 mi North 5.8 mph - N/A   Overcast
10:55 AM 31.8 °F 26.2 °F 27.0 °F 82% 30.29 in 10.0 mi North 5.8 mph - N/A   Overcast
11:15 AM 32.0 °F - 26.8 °F 81% 30.28 in 10.0 mi Calm Calm - N/A   Overcast
11:35 AM 32.2 °F 26.7 °F 27.1 °F 82% 30.28 in 10.0 mi North 5.8 mph - N/A   Overcast
11:55 AM 32.5 °F 27.1 °F 27.0 °F 80% 30.28 in 10.0 mi NNW 5.8 mph - N/A   Overcast
12:15 PM 33.3 °F 28.9 °F 27.0 °F 78% 30.27 in 10.0 mi NNW 4.6 mph - N/A   Overcast
12:35 PM 34.2 °F 28.2 °F 26.8 °F 74% 30.26 in 10.0 mi North 6.9 mph - N/A   Overcast
12:55 PM 34.5 °F 29.4 °F 27.0 °F 74% 30.24 in 10.0 mi North 5.8 mph - N/A   Overcast
1:15 PM 34.7 °F 30.6 °F 26.4 °F 72% 30.24 in 10.0 mi North 4.6 mph - N/A   Overcast
1:35 PM 35.1 °F 28.6 °F 25.5 °F 68% 30.22 in 10.0 mi North 8.1 mph - N/A   Overcast
1:55 PM 35.1 °F 26.9 °F 25.0 °F 67% 30.21 in 10.0 mi North 11.5 mph - N/A   Overcast
2:15 PM 35.2 °F 27.6 °F 24.8 °F 66% 30.20 in 10.0 mi North 10.4 mph - N/A   Overcast
2:35 PM 34.7 °F 28.1 °F 24.6 °F 67% 30.19 in 10.0 mi NNW 8.1 mph 16.1 mph N/A   Overcast
2:55 PM 34.7 °F 28.8 °F 25.0 °F 68% 30.18 in 10.0 mi North 6.9 mph - N/A   Overcast
3:35 PM 34.5 °F 26.7 °F 23.9 °F 65% 30.17 in 10.0 mi North 10.4 mph - N/A   Overcast
3:55 PM 34.5 °F 27.3 °F 23.2 °F 63% 30.16 in 10.0 mi North 9.2 mph 16.1 mph N/A   Overcast
4:15 PM 34.3 °F 27.0 °F 23.0 °F 63% 30.16 in 10.0 mi North 9.2 mph - N/A   Overcast
4:35 PM 34.2 °F 28.2 °F 23.2 °F 64% 30.16 in 10.0 mi North 6.9 mph - N/A   Overcast
4:55 PM 34.0 °F 27.2 °F 22.8 °F 64% 30.16 in 10.0 mi NNW 8.1 mph - N/A   Overcast
5:35 PM 33.8 °F 27.7 °F 23.0 °F 65% 30.15 in 10.0 mi North 6.9 mph - N/A   Overcast
5:55 PM 33.6 °F 29.4 °F 23.0 °F 65% 30.14 in 10.0 mi North 4.6 mph - N/A   Overcast
6:15 PM 33.4 °F 28.1 °F 22.8 °F 65% 30.14 in 10.0 mi NNW 5.8 mph - N/A   Overcast
6:35 PM 33.3 °F 27.1 °F 21.9 °F 63% 30.14 in 10.0 mi NNW 6.9 mph - N/A   Overcast
6:55 PM 33.1 °F 26.1 °F 21.0 °F 61% 30.14 in 10.0 mi NNW 8.1 mph - N/A   Overcast
7:15 PM 32.9 °F 25.3 °F 21.0 °F 62% 30.13 in 10.0 mi NNW 9.2 mph - N/A   Overcast
7:55 PM 32.2 °F 23.8 °F 20.5 °F 62% 30.13 in 10.0 mi NW 10.4 mph 19.6 mph N/A   Overcast
8:15 PM 30.4 °F 20.0 °F 24.8 °F 80% 30.12 in 10.0 mi NNW 13.8 mph 17.3 mph N/A   Overcast
8:35 PM 29.8 °F 20.9 °F 26.2 °F 86% 30.12 in 10.0 mi NNW 10.4 mph - N/A   Overcast
10:15 PM - - - N/A% 30.09 in 3.0 mi NNW 9.2 mph - N/A   Unknown
10:35 PM 29.3 °F 20.8 °F 28.4 °F 96% 30.08 in 4.0 mi NNW 9.2 mph - N/A Snow Light Snow
10:55 PM 29.3 °F 19.1 °F 28.4 °F 96% 30.07 in 2.5 mi North 12.7 mph - N/A Snow Light Snow
11:15 PM 29.1 °F 20.0 °F 28.0 °F 96% 30.07 in 2.0 mi NNW 10.4 mph - N/A Snow Light Snow
11:35 PM 29.1 °F 21.3 °F 28.0 °F 96% 30.06 in 4.0 mi NNW 8.1 mph - N/A Snow Light Snow
11:55 PM 29.1 °F 21.3 °F 27.9 °F 95% 30.05 in 3.0 mi NNW 8.1 mph - N/A Snow Light Snow